Location: Lower Kingswood
(51.2667°N, 0.2167°W)
Time: 19:34:49
(UTC+00:00)

Cosmos 1680 Rocket - Visible Passes

Search period start: 22 April 2024 00:00
Search period end: 02 May 2024 00:00
Orbit: 757 x 779 km, 74.1° (Epoch: 21 April)

Date Brightness Start Highest point End Pass type
(mag) Time Alt. Az. Time Alt. Az. Time Alt. Az.
22 Apr 5.8 00:38:34 12° ESE 00:39:54 13° E 00:42:20 10° ENE visible
22 Apr 3.5 02:18:50 36° SSW 02:21:04 78° ESE 02:26:24 10° NNE visible
22 Apr 5.1 03:59:35 10° W 04:03:46 23° NW 04:07:59 10° N visible
23 Apr 4.1 01:42:34 37° SSE 01:44:12 50° ESE 01:49:20 10° NNE visible
23 Apr 4.6 03:22:50 15° WSW 03:26:30 32° NW 03:31:16 10° N visible
24 Apr 4.6 01:06:17 29° SE 01:07:25 32° ESE 01:12:06 10° NE visible
24 Apr 4.1 02:46:33 25° WSW 02:49:20 47° WNW 02:54:29 10° NNE visible
25 Apr 5.2 00:29:58 20° ESE 00:30:44 21° E 00:34:37 10° NE visible
25 Apr 3.6 02:10:14 38° SW 02:12:16 70° WNW 02:17:36 10° NNE visible
25 Apr 5.5 03:51:55 10° W 03:55:22 17° NW 03:58:49 10° N visible
25 Apr 5.7 23:53:37 13° E 23:54:09 13° E 23:56:29 10° ENE visible
26 Apr 3.5 01:33:53 49° S 01:35:18 77° ESE 01:40:38 10° NNE visible
26 Apr 5.1 03:14:08 11° W 03:18:00 23° NW 03:22:13 10° N visible
27 Apr 3.9 00:57:30 44° SE 00:58:26 49° ESE 01:03:33 10° NNE visible
27 Apr 4.7 02:37:46 19° WSW 02:40:43 33° NW 02:45:30 10° NNE visible
28 Apr 4.6 00:21:06 31° ESE 00:21:39 32° ESE 00:26:18 10° NE visible
28 Apr 4.1 02:01:22 30° WSW 02:03:33 47° WNW 02:08:42 10° NNE visible
28 Apr 5.8 03:44:41 10° WNW 03:47:02 13° NW 03:49:23 10° N visible
28 Apr 5.2 23:44:41 20° E 23:44:57 20° E 23:48:48 10° NE visible
29 Apr 3.6 01:24:56 46° SW 01:26:29 72° WNW 01:31:49 10° NNE visible
29 Apr 5.6 03:06:06 10° W 03:09:33 17° NW 03:13:01 10° N visible
29 Apr 5.6 23:08:14 13° E 23:08:22 13° E 23:10:37 10° ENE visible
30 Apr 3.5 00:48:29 57° S 00:49:30 76° ESE 00:54:50 10° NNE visible
30 Apr 5.2 02:28:44 13° W 02:32:11 24° NW 02:36:26 10° N visible
01 May 3.9 00:12:00 46° SE 00:12:38 48° ESE 00:17:44 10° NNE visible
01 May 4.7 01:52:15 21° W 01:54:54 33° NW 01:59:42 10° NNE visible
01 May 4.5 23:35:29 31° ESE 23:35:51 31° ESE 23:40:28 10° NE visible
